{"data":{"norad_id":66388,"intl_designator":"2025-257J","name":"STARLINK-35647","alt_names":[],"object_type":"PAYLOAD","status":"ACTIVE","operator":null,"country":"US","launch_date":"2025-11-09","launch_site_code":"AFETR","launch_vehicle":null,"mission":null,"orbit_class":"UNKNOWN","rcs_meters":null,"size_class":null,"mass_kg":null,"dimensions":null,"purposes":["comms"],"wikipedia_slug":null,"has_3d_model":false,"image_url":null,"decayed_at":null,"tle_current":{"epoch":"2026-05-25T05:08:25.652256Z","epoch_age_seconds":50454,"freshness":"FRESH","line1":"1 66388U 25257J   26145.21418579  .00014185  00000+0  49000-3 0  9991","line2":"2 66388  53.1586 221.2979 0001324  85.8815 274.2337 15.30207836 31443","mean_motion":15.30207836,"eccentricity":0.0001324,"inclination_deg":53.1586,"raan_deg":221.2979,"arg_perigee_deg":85.8815,"mean_anomaly_deg":274.2337,"bstar":0.00049,"rev_number":3144,"period_min":94.104863804919,"perigee_km":474.28429191936,"apogee_km":476.09905335187,"semimajor_km":6853.3286726356,"source":"CELESTRAK","updated_at":"2026-05-25T13:38:21.201653Z"}}}